Cosmos 1975 - Orbit

View from above orbital plane
View from above orbital plane
View from above satellite
View from above satellite

Ground track
Ground track

The orbit data is extracted from the following two-line orbital elements,

1 19573U 88093A   13140.50499384  .00001850  00000-0  15294-3 0  8722
2 19573 082.5231 340.4946 0015378 312.9438 047.0494 14.98312482336363
Epoch (UTC): 20 May 2013 12:07:11
Eccentricity: 0.0015378
inclination: 82.5231°
perigee height: 561 km
apogee height: 583 km
right ascension of ascending node: 340.4946°
argument of perigee: 312.9438°
revolutions per day: 14.98312482
mean anomaly at epoch: 47.0494°
orbit number at epoch: 33636

The dashed part of the orbit path shows where the satellite is in the earth's shadow,  

Developed and maintained by Chris Peat, Heavens-Above GmbH. Please read the updated FAQ before sending e-mail. Imprint. DLR